• In Netherlands
  • List of Countries
  • For 7 days
  • Water Temperature
  • Satellite Maps
  • Weather Map
  • Weather Widgets
  • user-avatar
    Login

    Hourly Weather Bansko

    Today, 27 June, Tuesday

    Time Temperature Precipitation Wind Pressure Humidity
    00:00 +19°C° 0.2 mm 1 mps 718 mmHg 85%
    01:00 +19°C° 0.2 mm 1 mps 718 mmHg 86%
    02:00 +19°C° 0 mm 1 mps 718 mmHg 87%
    03:00 +19°C° 0.1 mm 1 mps 718 mmHg 87%
    04:00 +19°C° 0.1 mm 1 mps 718 mmHg 87%
    05:00 +18°C° 0.1 mm 1 mps 718 mmHg 86%
    06:00 +21°C° 0 mm 1 mps 719 mmHg 78%
    07:00 +24°C° 0 mm 1 mps 719 mmHg 69%
    08:00 +27°C° 0 mm 1 mps 719 mmHg 61%
    09:00 +28°C° 0 mm 1 mps 720 mmHg 54%
    10:00 +30°C° 0 mm 1 mps 720 mmHg 47%
    11:00 +32°C° 0 mm 1 mps 720 mmHg 40%
    12:00 +33°C° 0.1 mm 1 mps 719 mmHg 38%
    13:00 +33°C° 0.1 mm 1 mps 719 mmHg 36%
    14:00 +34°C° 0.1 mm 1 mps 719 mmHg 34%
    15:00 +34°C° 0.2 mm 1 mps 719 mmHg 35%
    16:00 +33°C° 0.2 mm 1 mps 718 mmHg 37%
    17:00 +33°C° 0.2 mm 1 mps 718 mmHg 39%
    18:00 +30°C° 0.1 mm 1 mps 718 mmHg 49%
    19:00 +26°C° 0.1 mm 1 mps 717 mmHg 59%
    20:00 +23°C° 0.1 mm 1 mps 717 mmHg 70%
    21:00 +22°C° 0 mm 1 mps 717 mmHg 74%
    22:00 +21°C° 0 mm 1 mps 717 mmHg 78%
    23:00 +20°C° 0 mm 1 mps 718 mmHg 82%

    Tomorrow, 28 June, Wednesday

    Time Temperature Precipitation Wind Pressure Humidity
    00:00 +20°C° 0 mm 1 mps 718 mmHg 82%
    01:00 +20°C° 0 mm 1 mps 718 mmHg 83%
    02:00 +19°C° 0 mm 1 mps 718 mmHg 84%
    03:00 +19°C° 0 mm 1 mps 718 mmHg 85%
    04:00 +19°C° 0 mm 1 mps 717 mmHg 85%
    05:00 +18°C° 0 mm 1 mps 717 mmHg 86%
    06:00 +22°C° 0 mm 1 mps 718 mmHg 75%
    07:00 +25°C° 0 mm 1 mps 718 mmHg 64%
    08:00 +27°C° 0 mm 0 mps 719 mmHg 53%
    09:00 +30°C° 0 mm 1 mps 719 mmHg 47%
    10:00 +32°C° 0 mm 1 mps 719 mmHg 41%
    11:00 +33°C° 0 mm 1 mps 719 mmHg 35%
    12:00 +35°C° 0 mm 2 mps 719 mmHg 33%
    13:00 +36°C° 0 mm 2 mps 718 mmHg 31%
    14:00 +37°C° 0 mm 2 mps 718 mmHg 29%
    15:00 +36°C° 0 mm 2 mps 718 mmHg 30%
    16:00 +36°C° 0 mm 2 mps 717 mmHg 30%
    17:00 +36°C° 0 mm 2 mps 717 mmHg 30%
    18:00 +31°C° 0 mm 2 mps 717 mmHg 39%
    19:00 +28°C° 0 mm 2 mps 717 mmHg 48%
    20:00 +25°C° 0 mm 2 mps 716 mmHg 57%
    21:00 +25°C° 0 mm 2 mps 717 mmHg 60%
    22:00 +24°C° 0 mm 2 mps 717 mmHg 62%
    23:00 +23°C° 0 mm 2 mps 717 mmHg 64%

    Day after tomorrow, 29 June, Thursday

    Time Temperature Precipitation Wind Pressure Humidity
    00:00 +23°C° 0 mm 1 mps 717 mmHg 67%
    01:00 +22°C° 0 mm 1 mps 717 mmHg 70%
    02:00 +22°C° 0 mm 1 mps 717 mmHg 74%
    03:00 +21°C° 0 mm 1 mps 717 mmHg 76%
    04:00 +21°C° 0 mm 1 mps 717 mmHg 78%
    05:00 +20°C° 0 mm 1 mps 717 mmHg 80%
    06:00 +24°C° 0 mm 1 mps 718 mmHg 70%
    07:00 +27°C° 0 mm 1 mps 718 mmHg 60%
    08:00 +30°C° 0 mm 1 mps 719 mmHg 50%
    09:00 +32°C° 0 mm 2 mps 719 mmHg 43%
    10:00 +35°C° 0 mm 2 mps 719 mmHg 36%
    11:00 +37°C° 0 mm 2 mps 719 mmHg 29%
    12:00 +38°C° 0 mm 3 mps 718 mmHg 27%
    13:00 +38°C° 0 mm 4 mps 718 mmHg 25%
    14:00 +40°C° 0 mm 5 mps 718 mmHg 24%
    15:00 +40°C° 0 mm 5 mps 717 mmHg 24%
    16:00 +40°C° 0 mm 5 mps 717 mmHg 25%
    17:00 +39°C° 0 mm 5 mps 717 mmHg 25%
    18:00 +35°C° 0 mm 4 mps 717 mmHg 34%
    19:00 +31°C° 0 mm 3 mps 717 mmHg 43%
    20:00 +28°C° 0 mm 2 mps 717 mmHg 51%
    21:00 +27°C° 0 mm 2 mps 717 mmHg 56%
    22:00 +25°C° 0 mm 2 mps 718 mmHg 61%
    23:00 +24°C° 0 mm 2 mps 718 mmHg 66%

    30 June, Friday

    Time Temperature Precipitation Wind Pressure Humidity
    00:00 +23°C° 0 mm 2 mps 718 mmHg 67%
    01:00 +23°C° 0 mm 1 mps 718 mmHg 69%
    02:00 +22°C° 0 mm 1 mps 718 mmHg 71%
    03:00 +21°C° 0 mm 1 mps 718 mmHg 72%
    04:00 +21°C° 0 mm 1 mps 718 mmHg 73%
    05:00 +20°C° 0 mm 1 mps 719 mmHg 74%
    06:00 +24°C° 0 mm 1 mps 719 mmHg 62%
    07:00 +27°C° 0 mm 1 mps 720 mmHg 51%
    08:00 +31°C° 0 mm 1 mps 721 mmHg 39%
    09:00 +32°C° 0 mm 1 mps 721 mmHg 34%
    10:00 +34°C° 0 mm 1 mps 721 mmHg 28%
    11:00 +36°C° 0 mm 1 mps 721 mmHg 23%
    12:00 +38°C° 0 mm 2 mps 721 mmHg 21%
    13:00 +39°C° 0 mm 2 mps 721 mmHg 19%
    14:00 +40°C° 0 mm 2 mps 720 mmHg 17%
    15:00 +39°C° 0 mm 2 mps 720 mmHg 18%
    16:00 +39°C° 0 mm 1 mps 720 mmHg 19%
    17:00 +39°C° 0 mm 1 mps 720 mmHg 21%
    18:00 +34°C° 0 mm 1 mps 719 mmHg 31%
    19:00 +30°C° 0 mm 1 mps 719 mmHg 42%
    20:00 +25°C° 0 mm 1 mps 719 mmHg 52%
    21:00 +25°C° 0 mm 1 mps 719 mmHg 54%
    22:00 +24°C° 0 mm 1 mps 719 mmHg 55%
    23:00 +23°C° 0 mm 1 mps 720 mmHg 56%

    1 July, Saturday

    Time Temperature Precipitation Wind Pressure Humidity
    00:00 +23°C° 0 mm 1 mps 720 mmHg 55%
    01:00 +23°C° 0 mm 1 mps 719 mmHg 53%
    02:00 +23°C° 0 mm 1 mps 719 mmHg 52%
    03:00 +22°C° 0 mm 1 mps 719 mmHg 53%
    04:00 +22°C° 0 mm 1 mps 719 mmHg 53%
    05:00 +22°C° 0 mm 1 mps 719 mmHg 54%
    06:00 +26°C° 0 mm 1 mps 720 mmHg 47%
    07:00 +29°C° 0 mm 1 mps 720 mmHg 41%
    08:00 +33°C° 0 mm 1 mps 721 mmHg 35%
    09:00 +36°C° 0 mm 2 mps 720 mmHg 30%
    10:00 +37°C° 0 mm 2 mps 720 mmHg 26%
    11:00 +39°C° 0 mm 3 mps 720 mmHg 21%
    12:00 +40°C° 0 mm 3 mps 720 mmHg 20%
    13:00 +42°C° 0 mm 3 mps 719 mmHg 19%
    14:00 +42°C° 0 mm 3 mps 719 mmHg 18%
    15:00 +42°C° 0 mm 3 mps 719 mmHg 19%
    16:00 +42°C° 0 mm 3 mps 718 mmHg 20%
    17:00 +40°C° 0 mm 3 mps 718 mmHg 21%
    18:00 +36°C° 0 mm 2 mps 717 mmHg 29%
    19:00 +32°C° 0 mm 2 mps 717 mmHg 38%
    20:00 +28°C° 0 mm 1 mps 717 mmHg 46%
    21:00 +27°C° 0 mm 1 mps 717 mmHg 49%
    22:00 +25°C° 0 mm 1 mps 717 mmHg 52%
    23:00 +24°C° 0 mm 1 mps 717 mmHg 54%

    2 July, Sunday

    Time Temperature Precipitation Wind Pressure Humidity
    00:00 +24°C° 0 mm 1 mps 717 mmHg 60%
    01:00 +23°C° 0 mm 1 mps 717 mmHg 65%
    02:00 +20°C° 0 mm 0 mps 716 mmHg 71%
    03:00 +22°C° 0 mm 1 mps 716 mmHg 68%
    04:00 +22°C° 0 mm 1 mps 717 mmHg 65%
    05:00 +22°C° 0 mm 1 mps 717 mmHg 63%
    06:00 +25°C° 0 mm 1 mps 717 mmHg 56%
    07:00 +28°C° 0 mm 1 mps 718 mmHg 49%
    08:00 +30°C° 0 mm 2 mps 718 mmHg 43%
    09:00 +32°C° 0 mm 1 mps 718 mmHg 38%
    10:00 +34°C° 0 mm 1 mps 718 mmHg 33%
    11:00 +36°C° 0 mm 1 mps 718 mmHg 28%
    12:00 +38°C° 0 mm 2 mps 717 mmHg 27%
    13:00 +39°C° 0 mm 2 mps 717 mmHg 26%
    14:00 +39°C° 0 mm 2 mps 717 mmHg 24%
    15:00 +38°C° 0.1 mm 3 mps 717 mmHg 29%
    16:00 +36°C° 0.1 mm 3 mps 716 mmHg 35%
    17:00 +35°C° 0.1 mm 3 mps 716 mmHg 40%
    18:00 +31°C° 2.1 mm 3 mps 716 mmHg 55%
    19:00 +27°C° 2.1 mm 2 mps 716 mmHg 70%
    20:00 +24°C° 2.1 mm 2 mps 716 mmHg 86%
    21:00 +24°C° 1 mm 2 mps 716 mmHg 87%
    22:00 +23°C° 1 mm 2 mps 716 mmHg 88%
    23:00 +21°C° 1 mm 2 mps 716 mmHg 90%
    Show more